Location: Limerick
(52.6800°N, 8.6400°W)
Time: 20:00:44
(UTC+00:00)

Sapphire - Visible Passes

Search period start: 01 March 2017 00:00
Search period end: 11 March 2017 00:00
Orbit: 786 x 796 km, 67.1° (Epoch: 28 February)

Date Brightness Start Highest point End Pass type
(mag) Time Alt. Az. Time Alt. Az. Time Alt. Az.
01 Mar ? 19:39:31 10° WNW 19:43:27 20° NNW 19:47:23 10° NNE visible
01 Mar ? 21:24:54 10° NNW 21:28:51 20° NNE 21:29:35 19° NNE visible
01 Mar ? 23:08:32 10° NNW 23:10:18 20° NNW 23:10:18 20° NNW visible
02 Mar ? 19:08:23 10° WNW 19:12:30 21° NNW 19:16:36 10° NNE visible
02 Mar ? 20:54:05 10° NW 20:57:53 19° N 20:59:46 16° NE visible
02 Mar ? 22:37:53 10° NNW 22:40:29 24° N 22:40:29 24° N visible
03 Mar ? 20:23:12 10° NW 20:26:53 18° N 20:29:56 12° NE visible
03 Mar ? 22:07:14 10° NNW 22:10:40 27° N 22:10:40 27° N visible
03 Mar ? 23:50:36 10° NW 23:51:24 14° NW 23:51:24 14° NW visible
04 Mar ? 19:52:15 10° NW 19:55:54 18° N 19:59:34 10° NE visible
04 Mar ? 21:36:34 10° NNW 21:40:51 26° NNE 21:40:51 26° NNE visible
04 Mar ? 23:19:56 10° NW 23:21:35 20° NW 23:21:35 20° NW visible
05 Mar ? 19:21:14 10° NW 19:24:55 18° N 19:28:36 10° NE visible
05 Mar ? 21:05:52 10° NNW 21:10:14 24° NNE 21:11:03 23° NE visible
05 Mar ? 22:49:16 10° NW 22:51:46 27° NNW 22:51:46 27° NNW visible
06 Mar ? 18:50:10 10° NW 18:53:56 18° N 18:57:42 10° NE visible
06 Mar ? 20:35:09 10° NNW 20:39:19 22° NNE 20:41:15 18° NE visible
06 Mar ? 22:18:37 10° NW 22:21:59 35° NNW 22:21:59 35° NNW visible
07 Mar ? 00:02:15 10° NW 00:02:42 12° NW 00:02:42 12° NW visible
07 Mar ? 20:04:23 10° NNW 20:08:22 20° NNE 20:11:28 13° NE visible
07 Mar ? 21:47:58 10° NNW 21:52:12 39° NNE 21:52:12 39° NNE visible
07 Mar ? 23:31:29 10° NW 23:32:55 18° NW 23:32:55 18° NW visible
08 Mar ? 19:33:34 10° NW 19:37:23 19° N 19:41:13 10° NE visible
08 Mar ? 21:17:19 10° NNW 21:22:21 36° NE 21:22:25 36° NE visible
08 Mar ? 23:00:45 10° NW 23:03:09 27° NW 23:03:09 27° NW visible
09 Mar ? 19:02:42 10° NW 19:06:25 18° N 19:10:07 10° NE visible
09 Mar ? 20:46:40 10° NNW 20:51:31 31° NNE 20:52:40 28° NE visible
09 Mar ? 22:30:03 10° NW 22:33:24 39° NW 22:33:24 39° NW visible
10 Mar ? 20:16:00 10° NNW 20:20:39 27° NNE 20:22:57 21° ENE visible
10 Mar ? 21:59:22 10° NW 22:03:41 56° NNW 22:03:41 56° NNW visible
10 Mar ? 23:43:34 10° WNW 23:44:25 13° WNW 23:44:25 13° WNW visible
